Location: T. Spence Memorial Observatory
(32.7356°N, 82.2098°W)
Time: 19:25:26
(UTC-04:00)

Daily predictions for brighter satellites

Satellite Brightness Start Highest point End
(mag) Time Altitude Azimuth Time Altitude Azimuth Time Altitude Azimuth
COSMOS 2428 3.1 20:18:34 10° S 20:23:53 41° ESE 20:29:12 10° NE
CZ-2D R/B 4.1 20:21:25 10° SE 20:24:44 30° ENE 20:28:05 10° NNE
FengYun 1-2 T 4.3 20:19:36 10° SSE 20:25:11 78° ENE 20:30:49 10° N
deb Centaur AC-2 4.3 20:21:33 10° WSW 20:25:45 55° S 20:30:21 10° E
Cosmos 2181 Rocket 4.2 20:19:41 10° N 20:26:10 87° W 20:32:36 10° S
Cosmos 2333 4.5 20:21:49 10° S 20:27:11 46° ESE 20:32:32 10° NE
H-2A R/B 2.0 20:20:29 10° W 20:27:13 46° SSW 20:29:29 10° SE
FREGAT/IRIS 2.5 20:25:24 10° SSE 20:28:19 66° ENE 20:31:15 10° N
Delta 128 4.5 20:23:47 10° WSW 20:28:51 53° S 20:34:52 10° ESE
Cosmos 1455 3.9 20:33:55 10° ESE 20:36:04 15° E 20:38:14 10° NE
Cosmos 1844 Rocket 3.8 20:31:56 10° N 20:36:36 25° ENE 20:41:05 10° ESE
Cosmos 2263 Rocket 2.9 20:33:04 10° NNW 20:38:39 57° WSW 20:44:09 10° S
Cosmos 2237 Rocket 3.6 20:37:28 10° SE 20:40:49 16° E 20:44:12 10° ENE
Cosmos 2219 Rocket 2.6 20:36:24 10° S 20:41:37 39° ESE 20:46:49 10° NE
Cosmos 2074 Rocket 4.1 20:35:44 10° S 20:42:01 88° E 20:48:20 10° N
ERS-2 2.8 20:39:46 10° SE 20:43:08 36° ENE 20:46:31 10° N
Cosmos 1892 4.2 20:42:59 10° NNE 20:45:50 19° ENE 20:47:46 14° ESE
NOSS 2-1 (E) 3.0 20:43:11 10° SSW 20:46:49 85° ESE 20:50:36 10° NNE
Cosmos 1610 Rocket 4.5 20:42:26 10° S 20:48:28 64° E 20:54:32 10° NNE
ATLAS CENTAUR R/B 2.1 20:46:06 10° SSE 20:49:04 24° ESE 20:52:07 10° NE
Cosmos 2278 Rocket 4.2 20:51:37 10° NE 20:53:14 11° NE 20:54:51 10° ENE
USA 186 1.9 20:55:32 24° E 20:55:54 26° ENE 20:57:50 10° NNE
Resurs 1-3 4.3 20:53:54 14° SE 20:57:09 33° ENE 21:01:06 10° N
NOSS 3-3 (A) 3.8 20:52:24 10° SSW 20:58:14 66° ESE 21:04:32 10° NE
NOSS 3-3 (C) 3.8 20:52:31 10° SSW 20:58:20 65° ESE 21:04:37 10° NE
Cosmos 1666 Rocket 4.2 20:55:49 10° NNE 20:59:58 37° E 21:03:03 16° SE
OAO 2 Rocket 3.6 20:55:43 10° W 21:00:55 69° N 21:04:58 16° E
YAOGAN 6 2.9 21:01:47 17° SE 21:04:15 45° ENE 21:07:42 10° N
Cosmos 1809 Rocket 4.4 21:02:04 10° S 21:08:12 84° E 21:14:24 10° N
Cosmos 494 Rocket 4.0 21:03:19 10° NNW 21:08:34 89° WSW 21:13:47 10° SSE
Cosmos 1340 2.9 21:09:01 10° SSW 21:12:47 69° W 21:16:34 10° N
Cosmos 1151 Rocket 3.9 21:13:26 26° ESE 21:14:02 27° E 21:17:38 10° NNE
USA 267 3.9 21:08:47 10° ENE 21:14:26 31° SE 21:20:03 10° S
Sich 1 2.9 21:10:53 10° N 21:15:07 63° E 21:18:08 18° SSE
In-Cosmos 22 Rocket 4.1 21:10:13 10° N 21:15:41 84° W 21:21:01 10° S
Nadezhda 3 Rocket 4.0 21:10:19 10° N 21:16:35 64° E 21:22:40 11° SSE
Cosmos 1939 Rocket 2.7 21:16:06 21° SSE 21:18:35 69° ENE 21:22:26 10° N
SJ-6B 4.0 21:15:34 10° S 21:19:29 45° W 21:23:20 10° NNW
Cosmos 2251 Rocket 3.6 21:14:29 10° N 21:19:49 62° ENE 21:23:05 23° SE
Envisat 3.7 21:17:53 10° S 21:22:50 55° W 21:27:49 10° NNW
ASTRO E2 4.4 21:21:01 10° SSW 21:23:06 18° S 21:23:06 18° S
Meteor 2-14 Rocket 4.4 21:21:38 10° S 21:27:42 89° E 21:33:50 10° N
Cosmos 1825 4.2 21:27:11 10° NNE 21:28:24 15° NE 21:28:24 15° NE
Meteor 2-3 Rocket 3.8 21:26:30 10° N 21:32:00 56° E 21:34:38 30° SE
Cosmos 2228 Rocket 3.2 21:32:03 38° SE 21:33:16 50° E 21:37:31 10° NNE
Cosmos 1633 Rocket 2.9 21:29:35 10° N 21:33:56 78° E 21:35:51 33° SSE
Meteor 2-16 Rocket 4.4 21:30:26 10° S 21:36:34 86° E 21:42:43 10° N
SL-8 R/B 3.6 21:32:23 10° SW 21:37:10 86° NW 21:41:34 12° NE
Meteor 2-15 Rocket 4.4 21:32:23 10° N 21:38:33 85° W 21:43:50 14° S
Cosmos 1515 Rocket 3.5 21:37:19 39° SSE 21:38:44 60° E 21:43:09 10° NNE
SL-24 R/B - RUBIN 2 3.4 21:37:18 10° NNW 21:41:38 77° ENE 21:42:35 54° SE
ARGOS 3.9 21:44:33 32° ENE 21:44:52 32° ENE 21:49:34 10° N
GEOS 3 Rocket 3.5 21:47:40 10° NE 21:52:56 62° ESE 21:58:04 10° SSW
Resurs 01 Rocket 2.4 21:52:34 23° SSW 21:55:00 49° W 21:59:19 10° NNW
Cosmos 1980 3.6 21:50:40 10° SSW 21:56:20 86° WNW 22:02:03 10° NNE
ATLAS 3B CENTAUR R/B 4.1 21:51:33 10° W 22:00:27 24° SW 22:03:21 18° S
Sakura Rocket 3.9 21:57:11 10° WSW 21:59:59 33° SW 21:59:59 33° SW
Cosmos 1959 Rocket 4.3 22:00:08 38° SSE 22:02:36 73° E 22:08:43 10° N
Cosmos 2333 Rocket 3.3 21:57:18 10° SW 22:02:42 45° WNW 22:08:06 10° N
Spot 2 Rocket 4.0 22:03:43 32° SSW 22:05:55 57° W 22:10:56 10° NNW
Meteor 2-10 Rocket 3.8 22:11:14 59° ENE 22:11:14 59° ENE 22:16:32 10° NNE
Cosmos 1455 4.4 22:08:16 10° SW 22:11:26 25° WNW 22:14:38 10° NNW
Cosmos 2218 Rocket 3.9 22:11:56 35° S 22:14:51 87° W 22:21:17 10° N
Cosmos 1470 Rocket 3.8 22:10:40 10° NNW 22:14:51 68° WNW 22:14:51 68° WNW
SL-08 R/B 4.4 22:15:09 60° SSE 22:16:16 75° E 22:22:38 10° N
ATLAS 2AS CENTAUR R/B 2.8 22:09:00 10° NNW 22:16:48 75° ENE 22:18:17 58° ESE
Cosmos 1844 Rocket 3.9 22:15:21 10° NW 22:20:29 36° WSW 22:22:47 26° SSW
Cosmos 1844 4.4 22:15:27 10° NNW 22:20:56 49° WSW 22:22:30 39° SSW
ATLAS 2A CENTAUR R/B 3.9 22:07:12 10° SW 22:23:49 45° S 22:24:56 44° SSE
Cosmos 2237 Rocket 2.9 22:18:54 10° SW 22:24:21 52° WNW 22:29:50 10° N
Cosmos 2219 Rocket 4.4 22:21:06 10° WSW 22:25:37 24° WNW 22:30:08 10° N
ATLAS CENTAUR R/B 4.0 22:25:28 10° W 22:27:59 17° NW 22:30:34 10° N
Cosmos 2366 rocket 4.1 22:27:18 46° SSW 22:29:13 74° W 22:35:29 10° N
MetOp-A 4.2 22:33:30 74° NW 22:33:30 74° NW 22:38:24 10° NNW
H-2A R/B 2.6 22:39:07 50° N 22:39:07 50° N 22:42:48 10° N
Cosmos 2278 Rocket 2.3 22:32:20 10° NNW 22:37:23 71° NNW 22:37:23 71° NNW
ERS-1 Rocket 4.0 22:50:18 43° NNW 22:50:18 43° NNW 22:53:38 10° NNW
USA 267 3.7 22:51:10 10° NE 22:57:33 59° NW 23:03:56 10° WSW
Cosmos 2344 3.7 23:10:53 64° NNE 23:10:53 64° NNE 23:17:28 10° NNE
SL-16 R/B 3.5 23:15:04 35° NNW 23:15:04 35° NNW 23:18:31 10° N
